Hlavní strana
METAR-TAF:

METAR-TAF

Letiště :

Vidsel, Švédsko

zeměpisná šířka: 65-52N, zeměpisná délka: 020-08E, výška: 180 m

Aktuální stav počasí

Zpráva byla vytvořena před 17 minutami, v 23:20 UTC
vítr z různých směrů 2 kt
Teplota 1°C
Vlhkost vzduchu 100%
Tlak 1011 hPa
Viditelnost 10 km a více

METAR: ESPE 202320Z AUTO VRB02KT 9999 FEW200/// 01/01 Q1011

Čas: 01:37 (23:37 UTC)


TAF: chybějící

Stav a předpovědi počasí z více než 4 000 letišť (zprávy METAR a TAF).

Červené a žluté tečky na mapě představují dostupné meteorologické stanice.

Když kurzor umístíte na tečku, zobrazí se název stanice.

Pak kliknutím zobrazíte stav a předpověď počasí.

Chcete-li změnit mapu, kliknutím na zelené tlačítko se znaménkem +mapu přiblížíte, kliknutím na zelené tlačítko se znaménkem – mapu oddálíte a kliknutím na zelené šipky přejdete na sousední mapy.


METAR-TAF: